Tiempo cada hora Golborne

Hoy, 25 Noviembre, Miércoles

Tiempo Temperatura Precipitaciones Viento Presión Humedad
00:00 +10°C° 0 mm 5 mps 752 mmHg 83%
01:00 +10°C° 0.3 mm 4 mps 752 mmHg 85%
02:00 +10°C° 0.3 mm 3 mps 752 mmHg 86%
03:00 +9°C° 0.3 mm 3 mps 752 mmHg 88%
04:00 +9°C° 0.4 mm 3 mps 753 mmHg 88%
05:00 +8°C° 0.4 mm 3 mps 753 mmHg 87%
06:00 +8°C° 0 mm 3 mps 753 mmHg 86%
07:00 +8°C° 0.2 mm 3 mps 754 mmHg 84%
08:00 +8°C° 0.2 mm 3 mps 754 mmHg 82%
09:00 +8°C° 0.2 mm 3 mps 754 mmHg 80%
10:00 +8°C° 0 mm 3 mps 755 mmHg 77%
11:00 +9°C° 0 mm 3 mps 755 mmHg 73%
12:00 +9°C° 0 mm 3 mps 756 mmHg 70%
13:00 +9°C° 0 mm 3 mps 756 mmHg 73%
14:00 +9°C° 0 mm 3 mps 756 mmHg 75%
15:00 +8°C° 0 mm 3 mps 757 mmHg 78%
16:00 +8°C° 0 mm 3 mps 757 mmHg 80%
17:00 +7°C° 0 mm 3 mps 758 mmHg 83%
18:00 +7°C° 0 mm 2 mps 758 mmHg 85%
19:00 +6°C° 0 mm 2 mps 759 mmHg 86%
20:00 +6°C° 0 mm 2 mps 760 mmHg 87%
21:00 +6°C° 0 mm 2 mps 760 mmHg 88%
22:00 +6°C° 0 mm 2 mps 760 mmHg 89%
23:00 +6°C° 0 mm 2 mps 760 mmHg 90%

Mañana, 26 Noviembre, Jueves

Tiempo Temperatura Precipitaciones Viento Presión Humedad
00:00 +6°C° 0 mm 2 mps 760 mmHg 91%
01:00 +6°C° 0 mm 2 mps 761 mmHg 91%
02:00 +6°C° 0 mm 2 mps 761 mmHg 91%
03:00 +6°C° 0 mm 2 mps 761 mmHg 91%
04:00 +6°C° 0 mm 2 mps 761 mmHg 91%
05:00 +6°C° 0 mm 2 mps 761 mmHg 91%
06:00 +6°C° 0 mm 2 mps 762 mmHg 91%
07:00 +6°C° 0 mm 2 mps 762 mmHg 90%
08:00 +7°C° 0 mm 1 mps 762 mmHg 89%
09:00 +7°C° 0 mm 1 mps 762 mmHg 88%
10:00 +8°C° 0 mm 1 mps 762 mmHg 86%
11:00 +9°C° 0 mm 1 mps 762 mmHg 83%
12:00 +10°C° 0 mm 1 mps 762 mmHg 81%
13:00 +9°C° 0 mm 1 mps 762 mmHg 82%
14:00 +9°C° 0 mm 1 mps 762 mmHg 83%
15:00 +9°C° 0 mm 1 mps 762 mmHg 85%
16:00 +9°C° 0 mm 1 mps 762 mmHg 87%
17:00 +8°C° 0 mm 1 mps 762 mmHg 90%
18:00 +7°C° 0 mm 1 mps 762 mmHg 92%
19:00 +7°C° 0 mm 1 mps 763 mmHg 92%
20:00 +7°C° 0 mm 1 mps 763 mmHg 93%
21:00 +5°C° 0 mm 0 mps 763 mmHg 93%
22:00 +6°C° 0 mm 1 mps 763 mmHg 93%
23:00 +6°C° 0 mm 1 mps 763 mmHg 92%

Pasado mañana, 27 Noviembre, Viernes

Tiempo Temperatura Precipitaciones Viento Presión Humedad
00:00 +6°C° 0 mm 1 mps 764 mmHg 92%
01:00 +6°C° 0 mm 1 mps 763 mmHg 92%
02:00 +6°C° 0 mm 1 mps 763 mmHg 91%
03:00 +5°C° 0 mm 0 mps 763 mmHg 90%
04:00 +4°C° 0 mm 0 mps 763 mmHg 90%
05:00 +4°C° 0 mm 0 mps 763 mmHg 90%
06:00 +4°C° 0 mm 0 mps 763 mmHg 90%
07:00 +4°C° 0 mm 0 mps 763 mmHg 90%
08:00 +4°C° 0 mm 0 mps 763 mmHg 89%
09:00 +4°C° 0 mm 0 mps 762 mmHg 88%
10:00 +5°C° 0 mm 0 mps 762 mmHg 84%
11:00 +6°C° 0 mm 0 mps 762 mmHg 80%
12:00 +7°C° 0 mm 0 mps 762 mmHg 77%
13:00 +6°C° 0 mm 0 mps 762 mmHg 78%
14:00 +6°C° 0 mm 0 mps 761 mmHg 79%
15:00 +6°C° 0 mm 0 mps 761 mmHg 80%
16:00 +5°C° 0 mm 0 mps 761 mmHg 82%
17:00 +6°C° 0 mm 1 mps 761 mmHg 84%
18:00 +5°C° 0 mm 1 mps 761 mmHg 86%
19:00 +5°C° 0 mm 1 mps 761 mmHg 87%
20:00 +4°C° 0 mm 1 mps 761 mmHg 88%
21:00 +4°C° 0 mm 1 mps 761 mmHg 89%
22:00 +4°C° 0 mm 1 mps 760 mmHg 89%
23:00 +4°C° 0 mm 1 mps 760 mmHg 88%

28 Noviembre, Sábado

Tiempo Temperatura Precipitaciones Viento Presión Humedad
00:00 +4°C° 0 mm 1 mps 760 mmHg 88%
01:00 +4°C° 0 mm 1 mps 760 mmHg 86%
02:00 +5°C° 0 mm 1 mps 760 mmHg 84%
03:00 +5°C° 0 mm 1 mps 760 mmHg 82%
04:00 +5°C° 0 mm 1 mps 760 mmHg 83%
05:00 +4°C° 0 mm 1 mps 760 mmHg 84%
06:00 +4°C° 0 mm 1 mps 760 mmHg 85%
07:00 +4°C° 0 mm 1 mps 760 mmHg 86%
08:00 +4°C° 0 mm 1 mps 760 mmHg 86%
09:00 +3°C° 0 mm 2 mps 760 mmHg 87%
10:00 +3°C° 0 mm 2 mps 761 mmHg 84%
11:00 +4°C° 0 mm 2 mps 761 mmHg 81%
12:00 +5°C° 0 mm 2 mps 761 mmHg 78%
13:00 +5°C° 0 mm 2 mps 761 mmHg 79%
14:00 +6°C° 0 mm 1 mps 761 mmHg 79%
15:00 +6°C° 0 mm 1 mps 761 mmHg 80%
16:00 +5°C° 0 mm 1 mps 761 mmHg 82%
17:00 +4°C° 0 mm 2 mps 762 mmHg 84%
18:00 +3°C° 0 mm 2 mps 762 mmHg 86%
19:00 +3°C° 0 mm 2 mps 762 mmHg 86%
20:00 +3°C° 0 mm 2 mps 763 mmHg 86%
21:00 +3°C° 0 mm 2 mps 763 mmHg 86%
22:00 +2°C° 0 mm 2 mps 763 mmHg 87%
23:00 +2°C° 0 mm 2 mps 763 mmHg 87%

29 Noviembre, Domingo

Tiempo Temperatura Precipitaciones Viento Presión Humedad
00:00 +2°C° 0 mm 2 mps 764 mmHg 87%
01:00 +2°C° 0 mm 2 mps 764 mmHg 88%
02:00 +2°C° 0 mm 2 mps 764 mmHg 89%
03:00 +2°C° 0 mm 2 mps 764 mmHg 89%
04:00 +2°C° 0 mm 2 mps 764 mmHg 90%
05:00 +2°C° 0 mm 2 mps 764 mmHg 90%
06:00 +2°C° 0 mm 2 mps 764 mmHg 90%
07:00 +3°C° 0 mm 2 mps 764 mmHg 90%
08:00 +3°C° 0 mm 2 mps 764 mmHg 89%
09:00 +3°C° 0 mm 2 mps 764 mmHg 88%
10:00 +4°C° 0 mm 2 mps 765 mmHg 86%
11:00 +5°C° 0 mm 2 mps 765 mmHg 83%
12:00 +6°C° 0 mm 2 mps 765 mmHg 80%
13:00 +6°C° 0 mm 2 mps 765 mmHg 82%
14:00 +6°C° 0 mm 2 mps 765 mmHg 83%
15:00 +6°C° 0 mm 2 mps 765 mmHg 85%
16:00 +5°C° 0 mm 2 mps 765 mmHg 86%
17:00 +5°C° 0 mm 2 mps 765 mmHg 88%
18:00 +4°C° 0 mm 2 mps 765 mmHg 89%
19:00 +4°C° 0 mm 2 mps 765 mmHg 89%
20:00 +4°C° 0 mm 2 mps 766 mmHg 90%
21:00 +4°C° 0 mm 2 mps 766 mmHg 90%
22:00 +4°C° 0 mm 2 mps 766 mmHg 90%
23:00 +5°C° 0 mm 1 mps 766 mmHg 91%

30 Noviembre, Lunes

Tiempo Temperatura Precipitaciones Viento Presión Humedad
00:00 +5°C° 0 mm 1 mps 766 mmHg 92%
01:00 +5°C° 0 mm 1 mps 766 mmHg 93%
02:00 +5°C° 0 mm 1 mps 766 mmHg 93%
03:00 +5°C° 0 mm 1 mps 766 mmHg 94%
04:00 +5°C° 0 mm 1 mps 766 mmHg 95%
05:00 +5°C° 0 mm 1 mps 766 mmHg 95%
06:00 +5°C° 0 mm 1 mps 766 mmHg 96%
07:00 +5°C° 0 mm 1 mps 766 mmHg 96%
08:00 +5°C° 0 mm 1 mps 766 mmHg 96%
09:00 +6°C° 0 mm 1 mps 767 mmHg 96%
10:00 +6°C° 0 mm 1 mps 767 mmHg 95%
11:00 +6°C° 0 mm 1 mps 767 mmHg 93%
12:00 +7°C° 0 mm 1 mps 767 mmHg 92%
13:00 +7°C° 0 mm 1 mps 767 mmHg 92%
14:00 +7°C° 0 mm 1 mps 767 mmHg 93%
15:00 +7°C° 0 mm 1 mps 767 mmHg 93%
16:00 +7°C° 0 mm 1 mps 767 mmHg 93%
17:00 +7°C° 0 mm 1 mps 767 mmHg 94%
18:00 +6°C° 0 mm 0 mps 767 mmHg 94%
19:00 +6°C° 0 mm 0 mps 768 mmHg 95%
20:00 +5°C° 0 mm 0 mps 768 mmHg 95%
21:00 +5°C° 0 mm 0 mps 768 mmHg 95%
22:00 +5°C° 0 mm 0 mps 768 mmHg 96%
23:00 +5°C° 0 mm 0 mps 768 mmHg 96%
Mostrar más

Necesitamos Su Consentimiento

Meteoprog y nuestros Proveedores de Servicios pueden almacenar y acceder a sus datos personales como cookies, identificadores de dispositivo u otras tecnologías similares de su dispositivo y procesar dichos datos para personalizar contenido y anuncios, además de ofrecer funciones de redes sociales y analizar el tráfico.

  • Almacenar y/o acceder a información en su dispositivo

    Se puede almacenar o acceder a cookies, identificadores de dispositivo u otra información de su dispositivo para los fines anteriormente indicados.

  • Anuncios y contenido personalizados, medición de anuncios y contenido, percepciones del público, y desarrollo de productos

    Los anuncios y el contenido pueden personalizarse en base a su perfil. Se pueden añadir más datos para personalizar mejor los anuncios y contenidos. Se puede medir el rendimiento de los anuncios y contenidos. Se puede obtener la percepción sobre el público que ha visto los anuncios y contenidos. Dichos datos pueden usarse para desarrollar o mejorar la experiencia del usuario, sistemas y software.

Al hacer clic en ‘Estoy De Acuerdo’ usted permitirá el uso de las cookies, identificadores de dispositivo, balizas web u otras tecnologías similares indicadas. Su configuración puede cambiarse desde el navegador de su dispositivo.

Para ciertos fines, los intereses legítimos pueden ser considerados por encima del consentimiento. Puede leer más sobre ello en nuestra Política de Privacidad y Cookies.